Regional Weather Roundup
Issued by NWS Little Rock, AR

Home | Current Version | Previous Version | Text Only | Print | Product List | Glossary Off
Versions: 1 2 3 4 5 6 7 8 9 10 11 12 13 14 15 16 17 18 19 20 21 22 23 24 25 26 27 28 29 30 31 32 33 34 35 36 37 38 39 40 41 42 43 44 45 46 47 48 49 50

629
ASUS44 KLZK 240505
RWRLZK

WEATHER ROUNDUP FOR ARKANSAS
NATIONAL WEATHER SERVICE LITTLE ROCK AR
1100 PM CST THU NOV 23 2017

NOTE: "FAIR" INDICATES FEW OR NO CLOUDS BELOW 12,000 FEET WITH NO
SIGNIFICANT WEATHER AND/OR OBSTRUCTIONS TO VISIBILITY.

ARZ001-003-010-029-240600-
NORTHWEST ARKANSAS

CITY           SKY/WX    TMP DP  RH WIND       PRES   REMARKS
FAYETTEVILLE   CLOUDY    41  31  67 CALM      30.01F
FORT SMITH     CLEAR     42  34  73 CALM      30.02F
HARRISON       CLEAR     48  29  47 CALM      29.99F
BENTONVILLE    CLOUDY    44  29  55 S5        30.01F
ROGERS         CLOUDY    47  30  51 S8        30.00F
SILOAM SPGS    CLOUDY    48  29  47 S7        30.00F
HIGHFILL       CLOUDY    42  30  62 S5        29.99
$$

ARZ004-005-016-240600-
NORTH CENTRAL ARKANSAS

CITY           SKY/WX    TMP DP  RH WIND       PRES   REMARKS
BATESVILLE     CLEAR     48  26  42 SW3       30.01F
FLIPPIN        CLEAR     45  30  55 CALM      29.99F
MTN HOME       CLEAR     48  30  49 SW5       29.98S
$$

ARZ040-041-240600-
WEST CENTRAL ARKANSAS

CITY           SKY/WX    TMP DP  RH WIND       PRES   REMARKS
MENA           CLEAR     46  32  57 W3        30.04F
MOUNT IDA      CLEAR     41  31  67 CALM      30.01F
$$

ARZ009-017-025-026-028-240600-
NORTHEAST ARKANSAS

CITY           SKY/WX    TMP DP  RH WIND       PRES   REMARKS
CORNING        FAIR      41  30  65 SW7       30.02S
JONESBORO      CLEAR     40  30  67 CALM      30.03S
NEWPORT        CLEAR     37  30  75 S8        30.03F
WALNUT RIDGE     N/A     37  30  75 S7        30.02S
BLYTHEVILLE    CLEAR     41  30  65 S6        30.04S
$$

ARZ022-023-033-042-044-240600-
CENTRAL ARKANSAS

CITY           SKY/WX    TMP DP  RH WIND       PRES   REMARKS
LITTLE ROCK    CLEAR     38  32  79 CALM      30.05F
N LITTLE ROCK    N/A     48  29  48 SW3       30.06F
JACKSONVILLE   CLEAR     35  28  77 CALM      30.03F
SEARCY         CLEAR     34  32  92 CALM      30.04F
HOT SPRINGS    CLEAR     45  31  58 CALM      30.04F
RUSSELLVILLE   CLEAR     36  32  85 NE3       30.02F
CLINTON        FAIR      34  30  86 CALM      30.03F
$$

ARZ036-240600-
EAST ARKANSAS

CITY           SKY/WX    TMP DP  RH WIND       PRES   REMARKS
WEST MEMPHIS   CLEAR     37  31  78 CALM      30.04S
$$

ARZ050-053-066-070-073-240600-
SOUTHWEST ARKANSAS

CITY           SKY/WX    TMP DP  RH WIND       PRES   REMARKS
ARKADELPHIA    FAIR      33  30  88 CALM      30.07S
CAMDEN         CLEAR     36  30  80 CALM      30.07S
TEXARKANA      CLEAR     43  32  65 SW3       30.06S
EL DORADO      CLEAR     37  35  92 CALM      30.08S
DE QUEEN       CLEAR     36  35  96 CALM      30.05S
$$

ARZ056-057-069-240600-
SOUTHEAST ARKANSAS

CITY           SKY/WX    TMP DP  RH WIND       PRES   REMARKS
PINE BLUFF     CLEAR     36  29  75 CALM      30.07R
STUTTGART      CLEAR     43  30  60 S6        30.05F
MONTICELLO     CLEAR     36  30  79 CALM      30.07S

$$






USA.gov is the U.S. government's official web portal to all federal, state and local government web resources and services.